Volver al catálogo

SL-14 DEB

ActivoPO
NORAD 45305·DEBRIS·🇷🇺 Russia

Lanzado Aug 15, 1991 desde Plesetsk Cosmodrome

Loading…

Próximos Pases (próximas 24 horas)

TLE

ActualizadoSource: Space-Track

Época: Sep 14, 2026, 03:11 UTC

1 45305U 91056AT  26257.13320986  .00001562  00000-0  31389-2 0  9992
2 45305  82.5643  49.1266 0020925  78.6243 281.7238 13.33583690317310

Sigue SL-14 DEB en tiempo real con AllMySat

Download on the App Store